Theta_e
335 339 339 338 338 337 337 336 337 339 337 334 334 333 335 332 323 325 331 332 333 333 333 333 333 334 334 335 335 335 336 335 334 335 336 337 337 337 336 335 336 335 334 335 334 333 334 334 334 332 332 332 330 328 328 330 331 331 332 332 333 333 333 333 332 333 332 332 332 332 332 333 334 334 334 333 332 331 330 330 330 329 330 332 332
336 340 338 338 339 338 338 337 337 337 336 334 334 334 334 331 321 322 329 332 332 332 333 332 332 333 333 334 334 335 336 334 334 336 336 337 336 335 333 331 333 332 332 334 335 334 334 334 333 332 332 332 331 329 327 328 329 330 331 330 331 331 331 331 331 332 332 332 331 331 331 331 331 332 332 332 331 331 331 331 331 330 331 331 330
336 340 338 339 339 339 339 338 338 337 337 336 334 334 333 329 323 324 327 330 332 332 332 332 332 332 332 332 332 333 335 333 333 334 335 336 334 333 331 329 329 330 331 333 333 333 333 332 332 331 331 330 329 328 328 329 329 330 330 329 330 330 330 330 331 331 331 331 331 331 331 330 330 330 331 331 331 331 330 331 331 331 331 330 329
336 340 339 340 339 339 339 338 338 337 337 335 334 333 332 326 320 324 326 328 331 332 332 332 332 332 332 332 331 332 333 331 332 333 334 334 332 331 331 331 328 328 331 332 331 331 332 331 331 330 330 329 328 327 329 329 329 329 328 329 329 329 330 329 329 329 329 329 329 330 330 330 330 330 330 330 330 331 331 331 331 331 331 331 330
335 339 339 340 340 340 339 339 338 336 336 334 334 333 331 326 320 320 323 327 330 332 331 332 331 331 331 331 331 333 332 330 332 334 334 333 331 329 329 331 329 329 330 331 331 330 331 331 330 330 329 329 327 327 329 329 329 328 328 328 327 327 327 327 327 327 328 328 329 330 330 329 328 329 329 329 329 330 330 330 330 330 331 331 331
335 339 340 339 340 340 339 339 337 336 336 334 334 333 330 327 325 321 321 326 329 331 331 332 331 331 331 331 331 332 331 330 332 334 333 332 330 329 329 330 329 329 330 330 330 330 330 330 330 329 329 328 327 327 328 328 328 328 328 327 327 327 327 327 328 328 329 328 328 328 328 328 329 329 330 330 329 329 329 329 329 330 331 331 331
334 339 339 339 339 339 339 338 337 337 336 335 334 332 330 326 325 323 322 324 328 331 331 332 331 331 331 330 331 333 333 332 334 334 333 331 330 329 329 330 329 328 329 329 329 329 329 329 330 330 329 329 329 328 328 328 328 327 328 328 327 328 328 328 328 329 329 329 329 329 329 330 331 330 331 330 330 330 329 329 329 330 330 330 330
333 338 338 339 340 339 338 337 338 337 336 335 334 333 331 328 325 324 322 321 325 329 331 332 331 332 332 330 333 335 334 333 334 334 332 332 331 329 328 327 327 328 329 328 328 329 329 329 330 330 329 330 330 329 328 328 327 327 327 327 327 327 328 328 328 329 329 329 330 330 331 332 332 331 330 329 330 330 329 329 329 330 329 329 329
334 337 337 339 339 339 338 338 338 336 335 335 334 333 332 329 326 325 323 321 323 326 330 332 331 331 331 331 333 333 333 333 334 333 332 331 330 331 329 326 327 328 328 328 329 329 329 329 329 330 330 330 330 329 329 327 326 326 325 325 324 325 326 326 327 327 327 328 329 330 330 331 331 330 330 329 328 328 328 328 328 328 328 328 329
335 337 338 339 339 339 338 338 337 335 335 334 334 333 332 330 328 326 323 321 324 327 329 331 331 331 331 331 331 331 332 332 333 333 331 330 330 332 330 327 327 328 328 328 328 329 329 329 329 329 330 330 330 329 328 326 324 323 324 324 324 325 325 325 324 325 327 328 328 328 329 329 329 330 329 328 327 327 326 326 326 326 327 327 327
335 337 338 338 338 338 338 337 337 335 333 332 333 333 333 332 330 327 324 321 323 328 330 330 330 331 331 331 330 330 331 331 330 331 331 331 332 332 330 327 326 327 328 328 329 329 329 329 329 329 329 328 328 327 326 325 324 323 324 325 325 326 326 326 325 326 327 327 328 327 328 327 328 329 327 325 325 324 323 324 325 326 326 325 325
335 336 337 338 338 337 338 337 337 336 333 332 333 333 333 332 332 328 325 321 321 326 329 330 330 331 331 330 330 330 330 329 329 330 330 331 332 331 329 325 324 327 327 328 329 329 329 329 329 330 330 328 326 326 324 324 325 325 325 326 326 326 327 327 327 328 328 327 327 327 328 328 328 326 325 324 324 323 323 324 325 324 324 324 324
335 336 337 337 337 338 337 337 337 335 332 331 332 333 332 332 333 329 325 322 320 323 326 328 329 330 332 330 330 330 330 330 330 330 330 331 331 329 328 324 322 326 327 328 328 329 329 329 330 330 330 328 327 326 324 324 325 326 326 326 327 327 327 327 327 328 328 328 328 328 329 329 327 324 323 325 325 324 324 324 323 323 323 323 323
336 337 337 337 337 338 336 335 336 335 331 328 329 332 331 330 333 330 325 323 320 319 322 325 327 329 331 331 330 330 329 329 330 331 330 330 330 329 328 324 323 326 326 327 328 328 329 329 329 329 329 328 327 326 324 324 325 325 326 326 327 327 328 327 327 328 328 328 328 328 328 328 327 324 323 324 325 324 324 323 323 323 323 323 322
336 337 337 337 337 337 335 333 335 334 329 326 327 330 330 330 332 330 325 324 321 318 317 321 324 326 329 331 329 329 328 328 329 329 329 329 329 328 327 325 324 326 326 327 327 327 328 328 328 328 328 327 326 325 325 325 325 325 326 326 327 327 328 328 328 328 329 329 329 329 329 329 326 325 324 322 323 323 323 323 322 322 322 322 321
335 336 338 337 337 337 335 332 333 333 328 326 326 328 329 330 332 331 327 324 322 319 317 316 317 320 325 328 329 329 328 329 329 329 329 328 328 327 326 325 324 325 326 326 327 327 327 326 326 326 326 325 325 325 325 325 325 326 326 326 327 327 327 328 328 328 328 329 329 329 328 327 325 324 323 322 321 322 322 322 322 321 321 321 320
336 336 337 337 337 337 336 332 330 330 328 326 326 328 328 330 332 331 328 325 323 322 319 317 315 315 318 322 326 327 326 327 327 327 327 326 326 325 325 324 323 324 325 325 325 325 325 323 324 324 325 325 325 325 325 325 325 325 326 326 326 327 327 328 328 328 328 328 329 328 327 326 325 323 323 323 322 321 321 320 320 319 319 319 318
338 337 337 337 337 337 336 331 327 328 327 325 325 327 329 331 332 332 330 326 325 323 321 320 316 315 314 315 320 323 323 324 325 326 326 325 325 324 324 324 323 324 325 324 323 323 323 322 323 323 324 324 324 324 324 324 325 325 326 326 326 327 327 327 327 327 328 329 328 327 326 325 324 323 323 322 320 320 319 319 319 319 318 318 318
340 338 337 337 337 337 337 332 328 326 325 325 325 327 330 332 332 332 331 328 326 324 324 322 319 316 313 312 315 319 321 322 324 324 324 325 325 324 324 323 323 324 324 323 322 322 322 321 321 321 322 322 323 323 323 324 324 325 325 326 326 327 327 327 327 328 328 328 327 326 325 324 323 322 321 320 319 319 319 319 319 318 317 317 317
340 339 338 337 337 337 337 335 331 330 326 324 325 327 330 332 332 332 332 330 327 325 325 323 321 318 315 312 312 314 317 319 321 321 322 324 324 324 323 322 322 323 323 322 322 322 321 321 320 320 321 321 322 322 322 323 323 324 325 326 327 327 327 327 328 328 328 327 326 326 324 323 321 320 320 320 320 319 319 318 317 317 316 316 316
340 339 338 337 337 337 337 336 335 334 330 325 324 326 330 332 332 332 332 331 329 327 326 324 323 321 316 313 311 310 311 315 318 318 320 322 322 322 322 321 320 320 322 324 322 321 322 321 321 321 321 321 321 322 322 322 322 323 324 325 326 326 326 327 327 327 327 326 326 325 323 322 321 321 321 320 319 318 318 317 317 316 315 315 314
340 339 338 337 337 336 336 336 336 336 332 327 324 324 329 332 332 332 332 331 330 329 327 325 324 322 319 316 313 310 308 309 314 316 317 319 320 320 320 320 319 318 321 324 322 320 321 321 321 321 321 320 320 320 321 321 321 321 322 324 324 325 325 326 327 327 326 326 325 324 322 322 321 321 321 320 318 318 317 317 316 314 314 314 313
339 339 338 337 336 336 336 336 336 336 334 330 326 324 327 331 332 332 332 331 331 330 328 326 325 324 321 319 316 312 308 306 308 311 313 315 316 317 317 317 317 315 316 319 319 318 318 319 319 320 320 320 320 319 319 319 319 320 321 322 323 323 324 324 325 326 325 325 324 322 322 321 320 320 320 319 318 317 317 317 315 313 313 313 313
339 339 339 337 336 336 335 336 336 336 335 333 328 325 325 330 332 332 332 332 331 331 330 328 326 325 323 322 319 316 311 307 305 306 307 309 311 311 312 312 314 313 312 313 314 315 315 316 318 318 318 319 319 318 318 318 317 318 319 319 321 322 323 324 324 325 325 324 323 322 321 320 320 320 320 318 317 317 316 316 315 313 313 312 312
338 338 338 338 337 336 335 335 335 335 336 335 331 327 325 328 331 331 332 332 331 331 331 330 328 327 325 323 321 319 316 310 305 305 304 305 306 306 308 309 310 312 310 310 311 312 314 316 317 317 317 318 318 318 318 318 317 317 317 318 319 320 322 323 323 324 324 323 322 321 319 319 320 320 319 318 317 316 315 315 315 313 312 312 311
338 337 338 339 337 336 335 335 335 335 336 335 334 330 325 326 328 329 330 331 331 331 331 330 329 328 326 325 323 321 319 314 309 307 305 304 305 304 305 306 308 310 310 309 310 310 313 315 316 317 317 317 317 318 318 318 318 318 318 318 319 320 321 322 322 322 323 322 321 321 320 321 321 320 319 318 317 316 314 314 314 313 312 312 311
337 337 338 339 338 337 336 335 335 335 335 336 335 333 329 325 326 328 329 330 331 331 331 331 330 330 328 326 325 323 321 318 314 311 308 305 306 305 304 304 306 309 310 310 309 309 311 313 315 316 316 317 317 318 318 319 319 318 319 319 320 320 320 320 320 320 322 322 322 322 322 322 321 320 319 319 317 315 315 314 312 312 311 311 311
337 337 338 339 338 338 336 335 335 335 335 335 336 335 333 329 326 328 328 329 330 330 330 331 331 330 329 328 326 325 323 321 319 316 312 308 307 306 304 304 305 307 310 310 310 309 309 311 314 315 316 316 316 316 316 317 318 319 319 320 320 321 321 321 320 320 321 322 323 322 322 321 320 320 319 318 316 314 315 314 313 312 312 311 311
337 336 337 338 339 338 338 337 336 335 335 335 336 336 335 333 330 329 329 329 329 329 329 330 331 330 330 329 327 326 325 323 322 320 317 312 309 308 306 304 304 306 309 311 310 310 309 310 311 313 314 314 314 314 314 316 318 319 319 320 320 321 322 320 320 321 322 323 323 322 321 321 320 320 319 317 316 315 315 314 313 313 312 312 311
336 336 336 337 338 339 339 338 337 336 335 335 336 335 335 334 333 332 330 330 329 329 329 330 330 330 330 329 328 327 327 325 324 323 320 317 312 308 307 305 304 305 309 311 311 310 309 309 309 310 310 311 313 313 314 317 318 319 319 319 320 321 321 320 320 322 322 323 323 321 320 320 320 319 318 317 317 316 315 313 313 312 312 312 311
337 336 337 337 338 339 339 338 337 337 336 336 335 335 335 334 334 334 332 331 330 329 329 329 330 330 330 329 329 328 328 327 326 326 324 321 316 311 308 305 304 305 308 311 311 310 310 309 308 308 308 309 312 314 316 317 318 319 319 319 319 320 321 320 320 321 322 323 322 321 321 320 320 319 318 317 317 316 314 312 312 312 312 311 311
336 337 337 337 338 338 338 337 336 336 336 336 336 335 335 334 334 334 334 333 332 330 329 329 330 330 331 330 329 328 328 328 327 328 326 324 320 314 309 306 305 305 308 311 311 310 310 309 308 307 307 309 312 314 316 317 317 318 319 319 319 320 320 321 320 321 322 322 322 321 321 320 319 318 317 316 316 315 314 312 312 312 312 311 311
336 337 337 337 338 338 338 337 336 336 336 337 337 336 335 334 334 334 334 333 332 332 330 329 330 330 331 330 330 329 328 328 328 328 328 326 323 317 312 309 306 304 307 310 311 311 309 308 307 307 308 310 312 314 315 316 317 318 318 319 319 319 320 320 321 320 321 321 321 321 320 320 318 317 316 316 316 315 314 313 312 312 311 311 310
334 335 336 336 338 338 338 338 337 336 336 337 337 337 336 335 335 335 335 334 333 333 331 330 330 331 331 330 330 329 329 329 328 328 328 328 325 320 316 312 307 304 307 310 311 310 308 307 306 307 307 309 312 314 315 315 316 317 318 318 318 318 319 320 320 319 320 320 320 320 320 318 316 316 316 315 315 314 314 313 312 311 310 309 309
332 332 334 335 336 337 338 338 337 337 336 337 337 337 337 336 336 335 335 335 334 333 332 332 332 332 332 331 330 330 330 329 329 328 328 328 327 324 320 315 308 303 306 309 310 309 307 307 307 308 308 309 311 313 314 314 315 316 317 318 317 318 318 319 319 318 319 320 320 319 319 317 315 314 314 314 314 313 312 311 311 310 311 310 308
330 331 332 333 335 336 337 337 337 337 337 337 338 338 337 336 336 336 336 336 335 334 333 333 333 333 332 332 332 331 331 330 330 329 329 329 328 327 326 320 309 303 305 309 309 309 308 309 310 310 310 310 311 312 313 313 314 314 315 316 316 316 317 317 318 318 318 318 318 319 318 317 314 313 314 314 313 312 312 310 310 309 310 310 309
327 329 330 331 332 333 335 336 336 337 337 337 337 337 337 336 337 337 336 336 335 335 333 333 333 333 333 332 332 332 331 331 331 330 330 330 329 329 328 325 316 306 304 308 309 309 311 313 313 312 312 312 311 311 312 312 312 313 314 315 315 315 316 316 317 317 318 317 317 317 317 316 314 312 312 312 311 310 310 309 309 308 308 309 308
324 325 327 328 330 331 333 334 335 336 336 337 337 337 337 336 337 337 337 336 336 335 334 334 333 333 333 333 333 333 332 332 331 331 330 330 329 328 327 327 324 315 307 306 308 311 313 315 315 313 311 312 312 312 311 311 311 311 312 313 314 314 314 315 315 316 316 316 316 316 316 315 314 312 311 309 309 308 309 309 308 308 307 307 307
322 323 325 326 327 328 330 331 333 334 335 336 336 337 336 336 337 337 337 337 337 336 335 335 334 334 333 333 333 332 332 332 331 331 330 330 329 327 325 324 324 320 312 307 307 310 313 314 316 315 311 310 311 311 310 310 309 309 310 311 311 313 313 313 314 315 315 314 315 315 315 315 314 313 311 308 306 305 306 307 307 307 307 306 307
321 322 324 326 326 327 328 329 330 332 333 334 335 335 335 336 336 336 336 336 337 336 336 336 335 335 334 334 333 332 332 331 332 331 330 330 330 329 327 325 322 316 311 310 310 311 313 314 315 315 312 308 307 308 309 308 308 306 306 308 309 310 310 311 311 312 313 314 313 314 314 314 313 311 309 308 307 304 302 305 306 306 306 306 306
321 322 324 325 326 327 327 328 329 330 332 332 333 334 334 334 334 335 335 335 336 336 336 336 335 335 335 335 335 334 333 332 332 332 331 329 329 329 327 323 322 317 312 312 315 314 314 315 316 315 313 309 306 306 307 307 305 302 301 302 303 305 306 308 309 308 310 311 312 313 313 312 312 311 309 309 309 303 299 303 306 305 306 306 306
320 321 323 323 324 326 327 328 328 329 331 331 332 332 333 333 333 333 334 334 334 335 335 335 335 335 335 335 335 334 334 333 332 332 332 330 328 328 327 324 320 319 315 312 313 314 313 314 313 312 310 309 307 306 305 305 303 300 298 297 297 298 301 302 303 305 305 306 307 309 310 311 311 312 311 309 306 300 298 303 305 305 305 305 305
317 319 321 323 323 325 327 328 328 329 330 331 331 331 332 332 332 332 332 332 333 333 334 334 334 334 334 334 334 333 333 333 333 333 333 332 330 328 329 329 325 322 318 313 312 312 313 312 311 310 308 306 305 304 304 304 304 300 297 298 297 296 298 298 297 300 303 302 302 302 303 305 307 309 308 305 301 298 299 301 302 302 302 303 304
315 319 321 322 323 324 325 326 328 329 329 330 331 331 331 331 331 331 331 331 332 332 332 332 332 332 332 332 332 332 332 331 332 333 332 332 331 330 328 328 328 326 322 318 315 314 314 313 311 311 309 304 302 302 303 303 304 302 299 299 296 295 299 299 294 296 298 297 297 297 297 298 299 301 300 299 297 296 296 296 296 296 297 299 299
313 317 319 321 322 323 324 325 327 327 329 330 330 331 331 330 329 329 329 329 329 329 329 330 331 331 331 331 331 331 330 330 330 330 330 330 331 331 330 328 327 326 324 322 319 317 315 314 312 311 310 308 304 301 301 301 303 306 304 300 297 297 300 297 294 295 294 294 295 294 293 294 294 294 294 294 293 293 292 291 292 292 292 293 292
312 313 316 319 321 322 324 325 326 327 328 329 330 330 330 329 329 328 328 327 327 327 328 328 329 329 329 330 329 329 329 329 329 329 330 330 330 330 330 330 329 327 327 325 323 320 316 313 312 310 310 310 307 302 300 300 300 303 306 306 304 304 301 296 296 298 294 292 293 293 292 292 292 292 292 291 290 290 290 290 290 290 290 290 289
311 312 314 318 320 322 323 324 325 326 328 328 329 329 329 329 329 329 328 327 327 326 327 327 327 328 328 329 329 329 329 328 328 328 329 330 330 329 328 329 329 328 327 325 323 321 318 316 314 312 311 311 308 304 301 300 298 299 302 305 304 304 303 299 298 303 301 295 291 291 292 291 291 291 291 291 290 289 289 289 289 289 289 289 289
310 310 312 315 319 321 323 324 325 326 327 328 329 329 329 329 329 329 328 328 327 327 327 327 327 326 326 327 328 328 329 328 328 328 328 329 329 330 329 327 327 328 327 325 322 320 319 318 316 315 314 312 310 308 305 301 299 299 300 301 301 301 302 301 299 302 307 305 296 291 291 291 291 291 290 290 290 290 290 289 289 289 289 289 289
310 310 311 313 316 319 322 323 325 326 327 327 328 328 329 329 328 328 328 328 328 327 327 326 325 325 325 325 325 326 326 327 327 327 327 327 328 329 330 329 328 328 328 327 325 323 320 319 317 314 312 311 310 309 307 304 302 303 300 299 299 299 299 300 300 299 301 306 302 293 290 290 290 290 291 290 290 290 289 289 289 289 289 288 288
311 310 311 312 313 317 320 322 323 324 326 326 327 327 328 328 328 328 327 327 327 326 326 325 324 324 324 324 323 324 324 324 325 325 325 326 327 328 329 330 329 329 328 327 326 325 323 321 319 317 314 312 309 307 307 306 306 306 304 301 299 298 297 297 298 297 297 300 302 297 292 290 290 291 291 290 290 290 289 289 289 289 288 288 288
312 311 311 311 312 314 316 319 321 322 324 324 325 326 326 327 327 327 327 326 326 325 324 324 324 323 323 323 323 323 323 323 323 323 323 324 325 326 328 329 329 329 329 328 326 326 325 323 321 318 316 313 311 309 308 308 307 306 305 303 301 300 299 299 299 299 297 297 301 300 294 292 292 292 292 291 290 290 289 289 289 288 288 288 288
Wind_Speed
16 14 11 11 12 12 12 12 11 11 12 13 12 12 12 12 14 15 15 15 16 16 15 15 15 16 16 16 15 15 15 13 14 13 14 15 16 16 16 16 16 17 18 19 19 19 20 21 19 19 19 19 19 19 20 21 20 18 19 21 22 22 23 23 23 22 22 22 22 22 22 21 21 21 22 24 26 27 28 28 29 29 28 27 27
19 15 13 12 13 14 14 13 13 11 11 12 11 12 12 12 14 15 15 15 16 16 15 15 15 16 16 15 15 15 13 12 13 13 14 15 16 16 15 15 16 16 17 19 19 18 19 20 19 19 20 19 18 18 19 20 20 19 20 23 23 23 24 24 24 24 24 23 23 23 23 21 21 21 21 23 24 26 27 27 27 28 27 26 27
20 17 14 14 14 14 15 14 14 11 10 11 11 12 13 13 15 15 15 16 16 15 15 15 15 15 15 15 15 14 11 11 12 12 13 15 15 14 14 14 14 16 17 18 18 17 18 18 18 19 19 19 19 19 20 21 20 20 22 23 23 24 23 24 24 24 25 25 24 24 24 23 23 22 22 23 23 25 26 25 25 26 25 25 26
20 17 15 15 15 14 15 15 14 12 10 11 12 12 13 14 15 15 15 16 16 16 16 16 15 15 15 15 15 13 11 11 12 12 13 15 15 14 15 15 15 16 18 18 17 17 17 17 17 17 17 18 19 20 20 21 20 20 22 23 23 24 24 24 23 24 24 25 25 25 25 24 24 23 23 23 24 25 24 24 24 24 24 24 25
20 18 16 16 15 15 15 15 14 12 10 11 12 12 13 14 15 16 16 16 17 16 16 16 15 15 15 15 15 12 11 12 12 13 13 14 14 14 15 16 15 16 18 18 17 17 17 16 16 16 16 18 19 20 20 20 20 20 21 22 22 22 23 23 24 25 25 26 26 26 25 24 24 23 22 23 24 24 23 24 24 24 23 23 24
20 18 17 15 15 15 15 15 14 13 11 11 12 13 13 14 14 15 16 17 17 17 16 15 15 15 15 15 14 11 11 12 12 13 14 14 15 15 16 16 16 16 18 18 17 17 16 16 15 16 16 17 19 20 20 20 21 20 20 22 23 24 24 24 25 25 25 25 25 25 25 24 24 22 22 22 23 24 23 24 23 23 23 23 23
20 19 17 16 15 15 15 16 15 13 11 12 13 13 13 13 14 14 16 16 16 16 16 15 15 15 14 15 14 12 12 12 13 14 14 15 15 15 15 15 16 18 18 18 18 17 16 16 15 16 16 17 18 19 20 20 21 19 19 23 24 25 24 23 23 24 24 23 23 23 24 24 24 22 22 22 22 23 23 23 23 23 24 24 24
20 19 17 17 15 15 16 16 15 13 11 12 13 13 12 13 13 13 15 15 16 17 16 15 15 15 14 15 15 13 13 13 13 14 14 15 14 14 13 14 17 18 18 18 17 17 16 16 16 16 16 18 18 19 19 19 19 19 20 22 23 24 23 23 24 25 24 23 23 24 24 24 23 23 22 22 22 22 23 23 23 23 24 24 24
20 18 17 17 17 16 16 17 15 12 11 12 13 12 12 12 12 13 13 14 16 16 16 15 15 15 14 15 15 14 14 13 13 13 13 14 15 15 15 16 18 18 18 17 17 16 15 15 16 16 17 19 18 18 17 17 18 19 21 22 22 23 23 23 24 24 23 23 24 24 24 24 23 22 21 21 22 22 23 23 23 23 23 24 24
20 18 18 18 18 18 17 16 14 12 12 12 12 12 12 12 12 12 12 13 14 15 15 15 15 15 15 15 14 14 14 13 13 13 13 13 14 16 16 17 18 18 17 17 16 15 15 15 16 16 17 18 17 16 15 16 20 21 22 22 22 22 22 23 23 23 23 24 24 23 23 23 22 21 20 21 21 21 22 23 23 23 22 22 23
20 18 18 18 19 19 17 16 13 12 11 12 12 12 12 11 11 12 12 13 14 14 14 14 15 15 15 14 14 13 13 12 13 13 12 12 14 15 14 14 17 18 17 16 15 15 15 16 16 16 16 16 16 15 15 18 21 22 22 21 21 20 20 21 22 23 24 24 23 22 22 22 21 20 20 21 21 21 22 23 22 21 21 22 22
20 19 19 18 19 18 17 15 14 13 12 13 12 12 12 11 11 11 12 12 13 14 14 13 14 15 14 14 13 13 12 13 13 13 12 12 13 13 12 12 16 17 16 16 15 15 15 15 15 15 14 15 16 16 16 17 19 21 20 19 19 18 18 20 21 22 22 22 22 22 22 22 20 19 20 21 21 21 22 22 22 21 21 21 21
21 20 19 19 19 18 17 15 15 14 13 14 13 13 12 12 11 10 11 12 12 13 13 13 14 14 13 13 13 13 13 13 13 12 12 11 11 12 11 11 15 17 16 15 15 15 15 15 14 14 14 14 15 15 15 15 16 18 18 17 16 16 16 18 19 20 21 21 21 21 21 22 20 19 21 22 22 21 21 21 21 21 21 20 20
21 21 20 19 18 18 17 16 16 15 15 14 14 14 12 12 11 10 11 11 11 12 13 13 14 14 14 12 12 12 12 12 12 11 11 10 11 12 12 12 16 17 15 15 14 14 14 14 14 14 14 14 15 15 14 14 14 14 14 14 14 14 15 16 18 19 20 20 20 20 20 21 20 19 21 21 21 21 21 21 21 21 20 20 19
20 22 20 19 18 17 16 16 16 15 15 14 15 14 12 12 11 11 10 10 11 11 12 12 13 15 15 13 12 12 11 12 11 11 10 10 11 12 12 13 16 16 14 14 13 13 13 13 14 14 14 15 15 14 13 13 13 12 12 12 13 13 13 15 17 18 19 20 20 19 20 20 17 18 19 19 20 20 20 20 20 20 20 19 19
19 21 20 19 18 17 16 16 16 15 15 15 15 14 13 12 12 11 10 10 10 10 11 11 12 14 16 15 13 12 12 13 12 11 11 10 11 12 12 13 16 15 14 13 12 12 12 13 14 14 14 14 13 12 12 11 11 11 11 11 11 12 12 14 17 19 20 19 18 18 18 17 17 17 18 19 19 19 19 19 19 19 18 19 19
18 19 20 19 18 17 17 16 15 15 15 15 14 14 13 12 12 11 10 10 10 10 10 10 10 12 14 15 14 13 13 13 12 11 11 12 12 12 12 13 15 16 15 13 12 12 13 14 14 13 13 12 11 11 11 10 10 10 10 10 11 11 12 15 17 18 18 17 17 18 16 17 18 19 19 19 19 19 19 19 19 18 18 18 19
18 19 20 20 19 18 17 17 16 16 15 15 15 14 14 13 12 11 11 10 10 10 10 10 10 10 11 12 13 13 13 14 13 12 13 13 13 12 13 14 16 17 16 14 14 14 15 15 13 13 12 11 11 11 11 10 10 10 10 11 11 12 14 16 17 17 16 16 17 16 14 16 19 20 19 18 18 19 18 18 18 18 18 18 18
18 19 20 20 21 19 18 18 17 17 16 16 16 16 15 14 13 12 11 10 10 10 9 10 9 9 9 10 11 12 13 14 14 13 14 15 14 13 14 15 17 17 15 15 16 16 16 15 14 13 12 12 11 11 11 11 11 11 11 12 12 13 15 16 17 17 15 16 16 15 15 17 20 20 19 18 19 19 18 18 18 18 18 18 18
19 20 21 21 21 21 20 19 18 17 17 17 17 17 16 15 14 12 12 11 10 10 9 9 9 9 8 9 10 10 11 12 12 12 14 16 15 14 15 15 16 16 14 14 16 16 15 14 13 12 12 12 11 11 11 11 11 11 11 12 13 15 15 17 18 17 15 16 16 16 17 18 19 19 18 18 19 18 16 17 18 18 17 17 18
21 22 22 22 22 22 21 21 20 19 18 18 18 18 16 15 15 14 13 12 11 10 10 10 9 9 9 9 9 10 10 11 12 11 14 15 15 14 14 14 14 15 13 12 14 15 14 13 12 11 11 11 11 12 12 12 12 11 11 12 14 15 15 17 17 16 16 17 16 17 18 18 18 18 17 17 17 17 17 17 17 17 17 17 17
24 24 24 24 24 24 23 22 21 20 19 19 19 18 18 17 16 16 15 13 12 12 11 11 10 10 9 9 9 9 9 10 11 12 13 14 13 13 14 13 13 14 13 11 13 15 13 12 12 11 12 12 12 12 12 12 12 12 12 12 14 15 15 15 16 16 15 16 17 17 17 17 16 16 15 16 17 17 16 16 17 16 16 16 16
25 26 26 25 26 25 24 24 23 22 20 20 19 19 20 19 18 17 16 15 14 13 13 12 11 10 10 9 9 9 9 10 11 12 13 13 13 12 12 12 12 13 13 13 15 15 13 13 12 12 12 12 12 12 12 12 12 12 12 13 14 16 17 16 14 15 15 16 17 16 14 15 15 14 14 16 16 16 15 16 16 16 15 15 15
28 28 27 26 27 26 26 25 24 24 22 21 21 21 21 21 20 19 18 17 16 15 14 13 12 11 11 10 10 10 10 10 11 12 12 13 13 12 11 12 12 13 15 17 17 16 14 14 13 12 12 12 11 11 11 11 11 12 12 13 15 16 18 18 16 15 15 16 16 12 10 13 14 15 15 15 15 15 15 15 15 15 15 14 14
27 27 27 27 28 28 27 26 26 25 24 23 22 22 22 23 22 21 20 19 18 17 15 15 13 12 12 12 12 11 11 11 12 12 12 13 13 13 12 13 13 14 16 18 17 16 15 14 14 13 12 12 11 11 11 11 11 11 11 12 15 17 18 18 18 17 17 16 15 9 8 13 16 15 15 15 15 15 15 14 15 15 15 14 13
25 27 29 29 29 29 29 28 27 26 26 25 24 23 23 24 24 22 21 20 20 19 18 17 15 14 14 14 13 13 13 13 13 13 13 13 13 13 13 14 14 15 17 17 16 16 16 15 15 14 13 12 12 12 11 11 11 11 11 12 14 16 18 18 18 17 18 16 15 12 11 15 16 15 14 15 15 15 14 14 14 14 14 14 13
27 29 30 30 30 30 30 29 28 28 27 27 25 25 24 25 25 24 23 22 22 21 20 19 18 16 16 15 15 15 15 15 15 14 14 14 14 14 14 14 14 15 17 17 16 17 17 16 15 15 14 13 13 13 12 12 11 11 12 13 15 16 17 18 18 18 18 18 17 17 16 15 15 15 14 15 15 13 14 14 13 13 13 12 12
27 29 31 31 31 31 31 31 30 29 29 28 28 27 26 26 26 26 25 24 24 23 22 21 20 19 18 17 16 16 16 16 16 15 15 15 15 14 14 15 15 15 17 17 17 17 17 17 16 15 14 14 13 13 12 12 12 12 13 14 16 16 16 17 17 18 19 19 18 17 17 15 14 15 15 14 14 13 14 14 13 14 13 12 11
28 31 31 32 33 32 31 32 32 32 31 30 30 29 28 28 27 28 27 26 26 25 24 23 22 21 20 19 18 18 18 17 17 16 16 16 16 16 15 16 16 16 17 17 17 17 18 18 17 16 15 14 13 12 12 11 12 13 14 15 16 16 16 16 16 18 19 19 18 16 16 16 15 15 14 14 13 13 15 13 13 13 12 12 11
32 32 32 34 34 33 32 33 33 33 33 32 32 31 30 30 29 29 29 28 27 26 25 25 24 23 23 22 21 20 19 18 18 17 17 17 17 17 17 17 17 18 18 18 18 18 18 18 18 17 16 15 14 13 12 11 12 14 15 16 17 17 17 17 17 17 18 19 18 18 18 17 17 16 15 15 14 14 14 12 12 12 11 11 10
32 32 34 36 35 35 34 33 33 33 34 33 33 33 32 32 31 30 30 29 28 27 27 26 26 26 25 24 23 22 21 20 19 18 18 18 19 19 19 19 19 19 19 19 19 19 18 18 18 17 16 15 14 13 12 12 13 14 15 16 17 18 18 18 18 17 17 17 17 18 19 19 19 17 16 15 15 14 12 11 12 12 11 10 9
34 36 37 36 36 36 36 35 34 34 34 35 34 34 33 33 32 31 31 31 29 28 28 28 28 28 27 26 25 24 23 22 21 20 19 19 20 20 20 21 21 21 21 21 20 20 19 18 18 17 16 15 15 14 14 13 13 14 15 16 18 18 18 19 19 18 17 16 16 19 19 18 19 17 15 14 14 13 12 11 12 11 10 10 9
38 38 36 35 37 37 37 36 35 35 35 36 35 35 34 33 32 32 32 31 31 30 30 29 29 29 29 28 27 26 25 24 23 22 21 20 21 21 22 22 22 22 22 22 21 21 20 19 18 17 17 17 17 16 15 15 14 15 16 16 18 18 18 19 19 19 17 16 16 19 19 18 18 17 16 16 15 13 13 12 12 11 10 9 9
37 35 34 36 37 37 37 37 36 36 36 36 36 35 34 33 33 33 32 32 32 31 31 31 30 29 29 30 29 28 27 26 25 24 23 22 22 22 23 23 23 24 24 24 23 23 22 21 20 19 18 18 18 18 18 17 17 17 17 17 18 18 18 19 19 19 19 18 17 17 19 19 19 18 18 17 17 16 14 12 11 10 10 10 8
35 34 37 38 37 37 37 37 37 37 37 37 37 36 35 34 34 33 33 33 33 33 32 32 32 30 29 30 31 31 30 29 27 25 25 25 24 24 23 24 25 25 26 26 25 24 23 22 21 21 20 20 20 19 19 19 19 19 18 19 18 18 18 19 20 21 20 20 20 19 19 20 19 19 18 19 19 19 17 15 13 11 12 11 9
37 37 37 36 36 37 37 37 37 38 38 39 38 37 36 35 35 35 34 34 34 34 33 33 33 32 31 31 32 33 32 32 30 27 26 27 27 25 24 24 26 27 28 28 27 26 25 23 22 22 22 22 22 21 21 21 20 20 20 20 20 19 19 19 19 21 21 21 22 21 21 22 21 20 20 21 21 20 19 18 17 15 14 13 11
38 38 37 36 37 37 38 38 38 39 39 39 38 37 36 36 36 35 36 36 35 35 34 34 33 33 32 32 32 33 34 35 33 31 30 30 30 28 25 24 26 28 30 30 29 27 26 25 23 23 24 24 24 24 23 22 21 21 21 21 21 21 21 20 19 20 22 23 23 23 24 23 21 21 22 21 20 19 19 20 20 19 18 17 13
37 38 38 37 37 37 38 39 39 38 38 38 38 37 37 36 36 36 36 37 37 36 35 35 35 35 34 34 33 33 35 36 36 35 34 34 33 32 30 27 26 29 31 32 32 30 28 27 25 24 25 25 25 26 25 24 23 22 22 22 22 22 22 22 21 21 22 23 24 24 24 24 23 23 22 21 19 19 20 21 21 21 21 20 18
36 37 37 37 36 36 37 38 39 38 37 37 37 37 36 35 35 36 36 37 38 37 37 37 37 37 36 36 36 34 35 35 36 36 36 36 35 34 33 32 30 31 33 34 33 32 30 29 27 26 27 27 26 27 26 24 23 22 22 22 22 23 23 23 24 25 25 23 24 25 25 26 26 26 25 23 21 20 21 23 22 23 23 23 22
35 34 35 35 36 36 36 37 39 38 37 35 36 36 35 35 35 35 36 38 38 38 38 38 38 38 37 37 37 36 35 35 36 36 37 37 36 36 35 34 34 34 35 36 36 34 33 31 29 28 28 27 25 25 25 25 23 20 19 21 21 22 23 24 25 26 27 27 26 26 27 27 28 27 26 24 23 23 23 24 24 24 25 25 25
32 32 32 34 36 37 37 37 38 38 37 36 36 36 36 35 34 36 38 37 37 38 38 39 39 38 37 37 37 36 36 36 36 36 37 37 36 36 36 35 35 36 37 38 38 38 37 36 33 31 30 29 28 27 26 25 22 16 14 16 19 20 22 24 25 26 27 29 30 30 30 30 30 28 26 26 27 27 26 26 26 26 26 26 26
33 33 34 35 36 36 36 37 37 37 38 39 38 38 39 38 36 37 37 36 36 37 38 39 39 38 38 37 38 37 36 36 36 36 38 38 37 37 36 34 34 36 38 38 38 38 38 37 35 33 31 31 30 30 31 27 20 16 12 9 10 14 19 23 25 26 27 28 29 31 32 32 33 32 32 31 30 29 27 27 27 26 27 26 26
33 33 34 34 34 34 35 35 36 37 39 40 39 40 40 39 37 36 35 34 35 37 38 38 37 38 38 38 38 38 37 37 36 36 37 37 36 37 37 37 37 38 38 38 37 37 38 37 36 34 32 30 29 30 34 31 23 18 11 4 3 5 11 19 25 28 30 29 29 30 31 32 32 33 34 33 31 29 28 28 28 28 27 27 27
29 30 31 32 33 34 35 36 36 36 37 39 40 40 37 35 35 34 32 32 33 34 34 35 36 37 38 39 39 39 38 38 37 37 37 36 36 37 38 38 40 41 41 40 40 39 40 40 40 37 33 30 28 29 35 35 29 22 10 3 3 2 4 11 19 28 30 29 30 30 30 31 31 32 32 32 31 30 30 30 30 30 29 29 29
28 30 31 32 33 34 35 35 36 36 36 37 38 38 35 32 31 30 28 27 28 29 30 33 36 37 38 39 39 39 38 38 38 37 38 38 38 38 37 36 39 41 40 39 40 40 40 42 43 41 39 35 31 30 34 37 35 32 21 9 4 3 4 4 8 17 25 30 31 31 30 30 31 31 32 32 32 31 31 31 31 30 30 30 29
28 29 29 30 31 32 32 33 34 34 35 35 35 35 35 33 32 30 28 26 27 29 32 34 36 37 39 39 38 38 38 38 38 37 38 38 39 39 38 36 36 38 39 39 42 41 39 40 41 40 40 39 34 30 32 38 37 36 33 22 12 9 6 6 4 3 13 25 30 30 31 31 31 31 32 33 33 33 32 31 31 30 29 29 29
24 23 24 26 27 28 29 30 32 33 33 33 33 34 35 35 34 34 33 31 31 33 35 35 35 36 37 38 38 38 38 38 38 38 38 39 40 41 40 39 38 38 38 39 42 43 42 42 42 41 41 39 36 32 32 36 35 34 37 32 22 15 11 11 8 2 3 12 23 29 31 32 32 32 34 35 34 33 33 33 32 31 30 29 29
16 17 19 21 24 26 27 28 29 30 31 31 32 33 34 36 36 35 35 35 35 35 34 33 33 33 33 35 37 38 38 38 39 39 39 40 40 41 40 40 40 41 41 39 39 39 40 41 42 43 44 42 42 41 38 36 35 36 40 37 30 23 18 16 14 12 6 2 10 20 29 34 34 34 36 36 36 35 35 35 33 32 31 30 29
10 11 13 16 19 22 23 24 25 27 28 29 30 32 34 35 35 35 35 36 37 36 34 31 31 31 31 33 34 35 37 38 39 40 40 40 40 40 40 39 39 40 41 42 42 41 39 40 40 41 42 42 44 44 39 38 40 39 38 38 35 28 23 19 18 17 12 6 5 7 18 25 26 35 40 37 38 38 36 35 34 33 31 31 31
5 7 9 11 14 17 20 22 23 24 26 27 29 30 32 33 34 35 36 37 37 36 34 32 31 31 31 33 33 34 35 37 38 40 40 40 39 39 39 39 40 39 38 37 39 40 40 41 41 42 44 45 45 44 40 39 41 42 39 37 35 29 21 17 18 20 16 12 8 5 14 19 18 29 39 41 41 39 37 36 34 34 35 34 32
3 5 7 9 11 14 17 19 21 22 23 25 27 29 30 32 34 35 37 37 36 34 33 34 33 32 33 34 34 34 35 36 37 37 38 38 38 40 39 39 39 39 39 37 36 37 39 42 42 41 44 46 47 46 46 43 41 41 40 38 37 36 30 24 26 29 22 14 10 7 13 20 19 22 29 37 41 39 38 38 37 38 37 36 34
Wind_Direction
157 146 148 138 138 143 138 135 120 114 107 95 90 89 89 81 84 92 93 95 99 100 100 100 100 100 100 97 97 98 96 94 94 94 96 95 95 93 90 91 92 92 90 86 85 84 83 85 85 86 86 86 85 87 91 93 93 92 99 104 104 103 100 97 94 91 88 87 86 88 89 88 85 84 84 83 81 79 77 76 76 75 75 75 74
155 148 151 142 145 149 143 136 123 117 106 100 100 97 96 89 88 93 96 95 99 101 101 102 101 103 102 100 99 99 98 100 97 94 95 95 93 90 87 88 88 89 92 90 88 86 85 86 87 88 88 89 87 87 89 92 94 95 102 107 106 105 104 102 100 97 94 91 90 90 91 91 88 87 86 83 80 78 76 75 75 75 76 76 76
150 148 149 143 149 151 143 136 127 121 111 112 109 103 99 94 91 92 95 97 99 100 103 104 104 106 104 103 103 99 96 99 98 97 97 95 91 86 83 83 85 88 91 93 92 90 89 89 89 91 90 91 91 90 89 90 94 101 108 109 108 107 105 104 103 100 98 96 93 92 92 91 90 89 88 85 83 82 81 80 78 78 78 77 76
151 148 147 144 151 149 141 139 131 128 129 123 112 106 102 97 95 96 96 98 100 101 103 104 106 107 104 104 105 103 100 102 101 98 97 93 88 86 86 84 85 88 93 95 96 95 93 91 90 92 93 93 92 92 92 92 94 103 110 110 110 108 107 106 103 99 98 97 95 94 94 94 91 89 89 88 86 85 85 84 82 81 81 80 79
153 149 148 147 149 146 142 141 134 137 139 124 115 110 104 98 95 97 99 99 101 103 105 106 108 107 106 105 106 106 104 105 103 98 94 89 84 86 89 89 89 91 97 99 99 99 95 93 92 95 97 98 94 93 95 95 95 100 108 110 110 109 107 105 102 100 99 98 98 96 95 93 91 90 90 89 88 86 85 84 84 84 83 82 82
154 152 151 151 150 146 145 140 138 145 139 125 120 114 107 100 96 96 98 99 101 103 107 109 110 110 109 107 107 107 105 103 103 103 94 87 84 86 90 91 93 96 100 101 100 100 97 95 94 97 99 101 95 92 96 97 98 98 103 108 108 107 106 104 104 103 101 101 99 98 97 94 94 93 91 92 92 91 90 90 90 89 86 84 83
156 155 153 153 151 149 144 140 146 149 139 131 125 117 110 103 101 98 97 100 105 108 109 110 111 111 111 111 109 104 102 101 102 103 96 90 87 89 95 97 99 101 103 104 103 101 99 97 96 97 101 103 98 94 97 99 101 100 105 109 109 108 108 108 108 107 106 104 101 101 102 100 99 98 95 95 94 93 93 93 92 90 88 86 85
159 157 156 154 152 151 146 147 153 149 142 137 126 119 113 107 104 100 99 102 108 113 113 112 113 113 113 114 111 104 102 103 103 99 97 94 92 94 99 103 104 104 106 106 105 103 101 100 99 100 103 106 103 100 99 100 103 107 111 113 113 113 113 111 110 110 108 105 102 102 102 100 99 99 99 99 97 96 94 93 90 88 87 86 85
163 159 157 157 154 155 153 155 154 149 147 139 127 123 118 111 106 102 102 102 106 112 116 115 115 116 115 115 112 107 104 105 105 102 101 102 105 105 101 102 104 107 109 108 106 104 102 102 103 103 106 107 106 104 101 104 109 115 118 117 116 116 116 113 112 111 108 105 103 102 100 97 95 95 97 98 98 96 94 92 90 87 86 86 84
166 161 160 160 157 157 157 157 153 151 151 140 131 127 121 115 109 104 103 102 104 109 114 117 117 118 117 116 114 111 110 109 107 104 101 105 113 111 105 104 107 111 111 109 107 104 104 104 106 107 109 109 110 107 105 109 114 120 121 118 116 116 115 114 114 112 109 107 106 105 103 101 98 94 95 96 97 95 92 90 87 85 84 83 82
168 165 163 162 160 159 158 159 156 154 152 142 135 132 126 118 111 106 105 105 108 113 115 117 120 121 119 118 117 117 116 113 108 106 105 110 113 110 109 107 109 114 113 111 107 104 106 106 107 109 109 113 114 110 110 113 117 121 122 118 116 115 115 116 116 114 112 111 109 108 106 105 102 98 98 97 95 92 90 88 86 85 85 82 79
170 168 165 165 164 162 163 164 161 161 156 146 141 137 130 121 114 108 109 110 112 117 118 119 122 122 120 118 118 119 118 114 112 112 114 115 112 112 110 106 112 116 116 114 108 105 108 108 109 109 109 115 116 113 115 116 118 121 122 119 117 117 117 120 119 117 115 113 110 108 106 103 101 101 99 94 90 89 88 87 87 86 84 82 79
170 170 167 168 168 169 170 170 168 168 160 152 148 143 135 128 123 115 113 115 116 119 121 121 123 123 121 117 118 121 118 116 114 114 118 116 111 110 107 106 115 117 118 117 110 106 107 108 109 110 111 116 117 117 120 120 119 121 123 121 120 119 120 120 120 121 118 115 112 109 108 103 101 102 99 94 90 89 88 87 85 84 84 83 82
170 172 171 172 173 174 176 175 173 171 166 158 153 148 142 138 134 126 118 118 120 121 124 124 127 129 124 117 120 122 120 120 118 114 116 116 110 107 105 109 116 116 119 118 110 106 104 107 110 112 114 116 118 122 125 124 123 123 124 125 122 122 122 120 121 121 118 114 111 108 106 103 102 100 97 95 92 90 88 88 88 86 85 85 84
172 173 173 176 175 175 178 178 177 175 171 164 158 154 148 146 144 136 126 124 122 122 126 126 131 137 132 122 121 123 123 126 124 118 117 117 112 107 106 111 116 115 118 116 109 106 105 109 113 115 116 117 122 125 128 128 128 127 127 128 127 127 125 122 122 121 116 112 110 108 106 105 104 100 96 94 94 94 91 91 91 89 87 86 86
176 175 176 178 177 176 178 179 180 178 175 169 162 159 156 154 153 147 137 132 127 124 124 126 132 140 140 132 128 132 132 133 129 122 122 118 113 114 115 116 119 117 117 116 111 109 109 114 119 121 120 122 125 125 126 129 131 132 133 133 132 132 131 129 126 121 116 114 113 112 110 106 103 98 94 92 95 96 93 92 90 89 89 87 84
181 179 179 181 181 178 179 181 181 180 177 173 168 164 163 162 162 157 148 142 136 131 127 127 132 139 146 143 141 147 149 149 143 135 134 129 129 134 132 128 126 123 123 126 129 128 127 129 130 129 128 128 126 125 123 126 131 136 138 138 138 135 138 136 126 119 118 120 117 112 109 105 100 96 95 95 99 97 92 90 88 87 87 86 83
185 186 184 184 185 182 181 181 181 181 180 178 175 172 169 169 171 167 158 152 146 141 135 132 135 138 147 152 153 156 155 158 157 150 146 140 144 148 143 137 133 132 136 147 151 147 148 149 148 144 142 138 133 130 125 122 126 132 135 137 138 137 138 132 122 120 122 122 116 112 110 106 101 99 98 98 100 97 92 89 88 87 87 87 85
189 191 190 190 188 186 184 182 183 182 183 183 181 178 174 175 177 175 166 160 155 150 146 141 140 141 146 156 162 163 160 162 163 159 152 146 149 149 145 142 139 140 146 158 157 152 157 160 158 156 153 150 147 142 136 132 128 127 130 133 136 136 133 127 125 128 129 123 116 114 111 107 102 100 99 99 100 100 97 94 91 89 88 87 86
194 196 195 195 193 190 188 186 185 184 185 185 185 182 178 180 182 183 176 168 165 159 156 150 146 147 151 158 165 169 169 169 169 166 157 155 159 157 153 150 148 147 145 152 155 155 161 163 162 161 157 155 153 152 148 145 141 136 133 134 135 133 131 130 131 132 129 121 115 114 110 105 101 99 102 102 102 100 99 96 92 90 88 87 86
196 199 198 198 196 195 193 190 189 188 187 186 189 187 182 185 186 189 186 178 174 170 167 162 156 157 158 162 166 170 172 173 174 169 162 164 168 164 161 157 155 151 141 139 149 158 164 165 163 160 159 158 157 156 153 152 150 148 144 142 138 134 133 133 133 133 127 120 116 113 109 104 102 104 106 104 102 101 99 97 95 94 92 87 85
197 199 201 201 199 198 197 194 193 192 190 190 192 190 188 189 190 193 192 187 183 179 177 172 168 168 167 168 169 170 170 172 173 170 168 170 171 169 167 164 162 156 145 138 149 162 166 165 165 163 164 163 163 160 157 156 154 155 154 152 147 141 139 137 135 135 131 125 121 117 112 108 107 110 111 108 106 103 102 100 97 96 94 88 86
197 200 201 202 202 201 199 199 197 195 194 193 194 194 193 193 194 196 195 192 191 188 185 182 179 178 176 175 174 174 173 171 171 170 172 174 174 175 172 167 166 163 156 152 159 168 171 170 169 168 168 168 170 166 164 161 159 162 162 162 157 149 147 147 144 137 135 131 126 123 117 114 115 119 117 112 109 105 105 103 100 98 95 92 90
199 201 201 203 204 203 202 203 202 199 197 196 196 197 197 197 198 199 198 197 196 195 193 192 190 188 186 184 184 182 180 177 174 174 176 178 179 181 178 170 169 170 165 164 170 175 177 177 174 174 174 173 174 172 170 167 165 167 169 171 168 159 153 152 154 146 141 136 131 133 129 122 122 127 124 115 113 113 109 105 102 100 99 98 96
201 201 202 204 206 207 206 206 205 203 201 199 199 199 200 201 202 203 203 201 200 201 200 199 198 197 194 191 193 191 188 184 181 182 183 183 184 185 184 178 174 172 169 172 177 179 181 182 181 181 180 180 181 180 180 179 175 174 177 180 175 169 163 157 156 151 147 143 137 142 146 136 133 132 127 120 119 117 112 109 104 102 102 104 101
203 203 205 206 207 209 209 208 207 206 205 204 202 202 203 203 205 207 207 205 205 205 205 205 204 204 202 198 198 198 195 192 189 189 190 191 191 192 190 186 183 178 175 180 182 182 186 188 187 188 187 187 188 187 188 190 189 187 185 184 178 172 169 166 163 155 152 151 145 146 148 143 139 135 131 127 124 119 116 115 108 104 106 107 107
204 206 207 208 209 210 210 211 210 208 208 208 206 205 206 207 208 210 210 209 208 208 208 209 209 209 209 206 203 204 202 198 196 196 197 198 197 197 197 194 191 186 183 186 186 186 190 193 193 193 193 194 195 194 193 196 198 197 191 183 178 172 170 169 169 165 160 159 155 153 151 147 140 136 136 133 126 122 123 119 112 113 114 112 111
206 208 209 209 210 210 211 212 212 211 210 210 210 209 209 210 210 211 213 212 211 211 211 212 212 212 213 212 210 210 208 206 203 201 203 203 203 202 201 200 198 196 193 192 192 191 193 197 199 198 199 199 201 200 199 201 200 198 193 184 178 173 171 169 170 171 168 165 161 158 155 149 147 146 143 138 132 129 128 121 116 120 120 118 116
210 211 211 211 211 211 211 213 213 213 212 212 212 212 212 212 212 213 214 215 215 215 214 213 214 214 214 215 214 213 213 212 209 207 207 207 207 207 206 205 203 203 200 198 198 197 196 199 202 204 205 204 205 204 202 202 199 195 193 188 182 178 174 173 177 176 174 172 164 159 156 151 155 156 146 140 140 138 131 123 119 123 123 119 118
214 215 213 213 213 212 212 213 214 214 214 213 213 214 214 213 214 216 215 215 217 218 218 215 216 217 217 216 216 217 217 215 213 211 211 211 211 211 210 208 207 207 206 204 203 204 203 202 205 208 209 209 207 206 205 202 198 195 194 192 187 184 180 179 184 183 183 182 170 161 159 160 163 158 150 147 143 140 133 126 127 130 130 127 123
216 216 216 216 214 213 214 214 215 216 216 214 214 216 216 215 216 219 219 218 218 218 221 219 216 218 220 219 218 218 218 218 217 215 215 216 215 214 213 211 210 210 209 208 207 208 208 206 207 209 212 213 209 206 205 204 200 197 197 197 193 190 188 186 189 192 195 191 178 170 168 170 166 155 154 152 145 145 140 133 137 138 138 138 134
217 219 218 217 216 215 215 215 216 216 217 217 217 217 217 217 217 220 222 223 221 217 221 223 219 218 220 222 221 220 219 220 221 220 220 219 219 218 216 215 214 212 211 210 209 209 210 209 208 209 212 213 212 208 205 206 204 200 199 199 198 196 195 194 196 201 205 205 191 179 177 174 164 157 160 157 151 152 149 141 143 145 145 145 142
219 221 219 218 218 218 217 217 217 217 218 219 219 219 219 218 218 220 223 226 225 221 220 223 223 220 219 222 224 223 223 223 223 223 224 224 223 222 220 219 216 214 212 211 210 210 210 209 208 208 211 212 213 210 206 205 205 204 202 202 201 200 201 199 199 204 209 213 201 181 178 176 167 165 164 159 158 156 152 148 147 152 153 154 153
222 221 221 221 220 220 218 218 219 219 219 220 221 221 220 219 220 221 223 225 227 226 223 224 226 225 223 223 224 226 227 228 228 226 226 228 228 226 225 223 219 216 213 212 211 211 211 211 211 209 210 212 213 213 210 206 205 205 204 203 203 201 203 202 198 203 208 208 204 186 176 176 172 174 173 166 165 161 158 159 161 166 164 163 165
225 223 223 223 222 221 220 219 220 221 221 221 221 222 221 221 221 222 223 225 227 228 228 226 228 230 230 227 225 226 228 231 234 232 228 228 229 229 229 227 221 217 215 214 213 213 213 214 214 212 209 211 213 213 212 210 207 206 205 203 203 202 202 204 198 200 204 203 202 193 181 182 181 182 183 177 174 170 170 172 174 177 178 177 180
226 226 226 225 224 223 222 221 221 222 223 223 223 223 223 223 223 224 224 225 227 228 229 229 230 232 233 233 230 229 229 230 234 235 232 231 230 229 232 232 225 219 216 215 214 214 216 216 217 217 213 210 210 211 212 212 210 207 207 205 204 202 201 204 203 201 203 202 200 195 189 190 189 189 191 185 182 182 182 183 182 180 182 182 179
228 228 227 226 226 225 223 223 224 224 224 224 224 224 225 225 225 226 226 227 229 229 230 230 230 231 232 233 233 233 232 231 231 232 231 231 230 229 233 236 231 224 219 216 216 218 220 219 218 218 219 216 212 211 210 209 210 208 207 207 205 205 204 203 207 208 207 203 200 196 193 195 195 195 196 194 195 197 196 194 190 187 186 183 182
232 231 229 228 228 226 225 225 226 226 225 225 225 225 226 228 229 229 229 230 231 232 232 231 231 231 232 232 233 235 235 233 231 230 230 229 229 227 226 228 230 228 223 219 218 220 223 224 222 220 220 219 216 213 210 207 207 207 206 207 207 208 208 207 211 214 210 205 203 202 202 205 208 207 208 211 215 215 210 205 200 197 195 190 191
234 233 231 230 230 228 227 227 226 226 226 226 225 226 227 228 230 231 231 232 232 232 231 231 231 230 232 233 233 234 236 235 232 230 230 230 229 228 225 222 223 224 222 220 218 218 218 219 222 224 219 218 220 216 211 206 203 206 206 206 208 210 212 211 213 216 217 215 212 211 213 215 218 221 225 228 228 226 220 215 210 205 202 197 195
235 233 231 229 228 228 227 227 227 225 224 224 224 224 225 226 228 228 230 231 231 230 230 230 231 231 231 231 230 231 233 235 235 233 231 230 230 232 231 226 224 221 218 218 219 220 220 218 220 223 219 214 216 215 212 207 201 200 204 207 210 213 215 216 215 216 219 223 224 222 222 223 224 226 229 232 235 235 227 220 216 210 207 204 202
235 232 229 229 229 228 226 226 227 224 222 222 222 222 221 222 224 226 229 230 230 230 230 230 231 232 232 231 232 232 232 232 233 234 232 230 230 231 229 226 225 222 220 220 221 223 223 222 221 220 219 213 211 213 211 205 195 190 198 209 215 217 218 220 221 220 219 222 225 227 227 228 230 233 236 239 239 237 228 220 218 214 212 209 208
233 231 229 230 229 227 225 227 227 223 222 223 222 223 223 222 223 225 229 230 231 231 231 233 233 233 234 233 234 235 234 233 232 233 232 230 229 228 229 230 228 225 223 221 220 220 220 220 216 212 212 212 212 212 207 199 192 188 187 197 222 230 227 227 227 226 224 224 225 227 228 229 231 235 240 241 238 232 225 220 218 216 216 214 213
234 231 229 229 227 226 226 227 226 224 224 224 223 225 226 226 226 227 229 230 233 235 235 236 236 236 236 235 236 236 236 236 235 235 233 231 230 228 230 235 235 231 226 222 219 218 219 218 216 211 207 207 211 211 207 202 194 182 167 170 218 238 243 239 234 229 227 227 229 229 230 230 230 231 233 234 230 226 223 222 221 221 220 218 216
234 231 229 227 226 226 227 227 227 227 226 225 225 227 227 227 227 229 231 232 235 237 239 239 239 238 238 237 237 236 236 236 236 237 236 236 236 233 230 229 231 230 226 224 222 221 221 219 217 215 209 203 204 208 208 206 201 190 166 123 144 165 259 243 233 232 229 228 231 232 232 233 231 229 228 228 227 227 226 225 225 225 225 224 223
234 234 231 228 227 228 229 228 228 228 227 227 226 225 224 224 224 226 229 232 235 236 236 237 237 238 239 238 237 236 235 236 236 237 238 239 239 237 234 230 229 227 225 226 226 225 224 221 217 215 212 209 207 207 207 206 207 209 200 175 146 190 240 216 218 235 231 227 230 232 233 234 233 231 229 229 228 228 228 228 229 229 229 228 228
238 238 235 232 230 230 230 228 228 229 229 229 227 224 223 222 221 221 223 226 229 231 232 234 235 237 238 239 240 238 236 236 236 237 238 238 237 237 237 237 233 229 230 233 233 230 226 221 218 215 213 214 212 207 207 206 208 214 213 210 211 205 193 168 157 248 234 228 229 231 232 234 235 234 233 231 229 228 229 230 230 230 231 230 229
244 243 239 235 233 232 232 230 229 230 230 230 227 225 223 223 223 224 225 226 228 233 235 237 239 240 241 241 241 241 239 237 237 236 237 237 238 238 239 240 238 236 236 234 230 228 226 224 223 222 220 220 215 212 212 208 207 214 218 220 223 219 204 186 180 187 230 230 229 229 232 233 233 234 234 234 232 231 231 230 231 231 231 231 230
253 249 244 238 235 234 234 233 232 231 231 230 228 227 226 226 227 228 229 231 234 239 241 242 243 243 243 243 242 243 242 241 240 238 237 237 239 239 238 237 237 238 239 237 233 230 228 227 226 226 225 223 220 219 217 209 206 214 219 220 225 228 220 206 204 207 192 209 224 225 231 232 231 232 234 235 234 233 233 231 231 232 232 232 231
265 254 248 243 238 236 235 235 234 233 232 231 231 230 230 230 230 230 232 235 238 242 244 246 246 245 245 245 244 244 244 244 243 242 239 238 239 240 239 238 237 237 236 236 237 234 231 229 228 227 225 223 222 222 219 212 211 216 217 219 224 229 227 219 218 216 210 214 211 210 222 224 230 233 232 233 233 233 233 233 233 233 233 233 232
277 251 245 241 237 236 235 235 236 236 235 235 234 234 233 233 233 233 235 238 241 243 244 246 246 246 246 246 246 245 246 246 245 244 242 239 239 240 240 238 238 239 239 237 235 234 235 234 233 232 230 226 224 222 221 219 220 221 220 218 219 220 222 223 223 221 220 227 231 217 206 203 219 231 230 230 231 231 231 232 233 234 234 233 232
295 252 244 239 235 234 234 235 238 238 238 238 237 237 237 236 237 238 239 241 242 243 244 245 245 245 246 247 247 248 248 248 247 246 244 241 239 239 239 239 238 239 241 243 243 241 241 239 237 235 233 229 226 225 225 225 225 224 222 221 219 216 215 218 222 219 215 219 226 226 209 206 216 229 230 231 231 230 230 230 231 233 234 233 232